Weather in Karacabey

Turkey     40°13′00″N   28°21′13″E
temp.,
°C
wind,
m/s
gust,
m/s
humid.,
%
clouds,
%
prec.,
mm/h
press.,
hPa
HPBL,
m
21 april, wed
wed2100:00+8se01915 0.0 101711
03:00+8ssw11901 0.0 101712
06:00+7se11922 0.0 101712
09:00+12s22703 0.0 1019231
12:00+17sw12510 0.0 10181232
15:00+18wnw234671 0.1 10181844
18:00+12nw5782100 1.2 1018483
21:00+9ese2595100 3.6 1020168
22 april, thu
thu2200:00+8se11880 0.0 102112
03:00+8s00890 0.0 102112
06:00+7ese01880 0.0 102211
09:00+12s11750 0.0 1023210
12:00+18sw22510 0.0 10231098
15:00+19wnw22447 0.0 10221441
18:00+18nne21525 0.0 1020704
21:00+12ene2269100 0.0 102115
23 april, fri
fri2300:00+11ene1166100 0.0 102010
03:00+10ese1167100 0.0 101910
06:00+9ese11766 0.0 101911
09:00+14s1165100 0.0 1019190
12:00+19sw234959 0.0 1019941
15:00+20nnw335093 0.0 1018859
18:00+17nnw2361100 0.0 1019261
21:00+13n0063100 0.0 102110
24 april, sat
sat2400:00+12sse1169100 0.0 102110
03:00+11ne117497 0.0 102010
06:00+10nne22867 0.0 102021
09:00+14ne5867100 0.0 1020643
12:00+14nne3459100 0.0 1021535
15:00+12ne1381100 0.5 1021306
18:00+12nne2486100 0.1 1019287
21:00+11nne2394100 0.9 1019156
25 april, sun
sun2500:00+11nne2497100 3.0 1018241
03:00+11n2397100 4.6 1017258
06:00+10nne3696100 2.2 1016514
09:00+10nne4793100 2.6 1017524
12:00+10nne4788100 0.1 1018617
15:00+10nne4887100 0.3 1017691
18:00+10nne6108499 0.1 1017793
21:00+9nne4981100 0.1 1018755